Regional Weather Roundup
Issued by NWS Sterling, VA

Home | Current Version | Previous Version | Text Only | Print | Product List | Glossary On
Versions: 1 2 3 4 5 6 7 8 9 10 11 12 13 14 15 16 17 18 19 20 21 22 23 24 25 26 27 28 29 30 31 32 33 34 35 36 37 38 39 40 41 42 43 44 45 46 47 48 49 50
000
ASUS41 KLWX 180411
RWRLWX

REGIONAL WEATHER ROUNDUP
NATIONAL WEATHER SERVICE BALTIMORE MD/WASHINGTON DC
1200 AM EDT WED OCT 18 2017

Note: "FAIR" indicates few or no clouds below 12,000 feet
with no significant weather and/or obstructions to visibility.
 TC=TEMPERATURE CELSIUS

 * =Non NWS site. Station does not report precipitation (e.g. rain,
    snow, etc.), thunder, or fog.

DCZ001-MDZ009-015-VAZ040>042-051-053>054-180500-
WASHINGTON METRO

CITY           SKY/WX    TMP DP  RH WIND       PRES   REMARKS
WASHINGTON NAT CLEAR     50  41  71 SW6       30.35S
DULLES         CLEAR     42  39  89 S3        30.34S
ANDREWS AFB    CLEAR     44  40  87 S3        30.33S
FT BELVOIR     CLEAR     42  40  94 CALM      30.34F
QUANTICO       CLEAR     46  44  93 NW7       30.36S
COLLEGE PARK*  CLEAR     43  41  95 CALM      30.34S
LEESBURG*      CLEAR     43  43 100 CALM      30.35S
MANASSAS*      CLEAR     39  39 100 CALM      30.35S
GAITHERSBURG*  CLEAR     41  39  93 CALM      30.34S

$$

MDZ006>007-011-014-180500-
BALTIMORE METRO

CITY           SKY/WX    TMP DP  RH WIND       PRES   REMARKS
BWI AIRPORT    CLEAR     45  41  86 SW3       30.33S
MD SCIENCE CTR   N/A     52  41  66 MISG      30.34S
MARTIN STATE   CLEAR     46  45  93 W5        30.34F
ANNAPOLIS      CLEAR     51  44  77 W3        30.33F
FORT MEADE*    CLEAR     39  37  93 CALM      30.36S

$$

MDZ012-015-019>023-180500-
MARYLAND EASTERN SHORE

CITY           SKY/WX    TMP DP  RH WIND       PRES   REMARKS
OCEAN CITY     CLEAR     40  39  97 CALM      30.35S
SALISBURY      CLEAR     40  39  97 CALM      30.35S
CAMBRIDGE*     CLEAR     39  37  93 SE5       30.34F
EASTON*        CLEAR     44  40  86 CALM      30.37F

$$

MDZ017>025-180500-
SOUTHERN MARYLAND

CITY           SKY/WX    TMP DP  RH WIND       PRES   REMARKS
PATUXENT RIVER CLEAR     41  32  70 SW5       30.34S
ST INIGOES     CLEAR     41  39  93 CALM      30.34S
LEONARDTOWN*   NOT AVBL

$$

MDZ003>005-180500-
NORTH CENTRAL MARYLAND

CITY           SKY/WX    TMP DP  RH WIND       PRES   REMARKS
FREDERICK*     CLEAR     43  43 100 CALM      30.36S
HAGERSTOWN APT CLEAR     51  37  58 CALM      30.32R
WESTMINSTER*   CLEAR     48  36  61 SW3       30.33R

$$

MDZ501>502-180500-
WESTERN MARYLAND

CITY           SKY/WX    TMP DP  RH WIND       PRES   REMARKS
OAKLAND*       CLEAR     43  32  65 SW5       30.30R
CUMBERLAND*    CLEAR     45  43  93 CALM      30.36R

$$

VAZ025>031-180500-
SHENANDOAH VALLEY

CITY           SKY/WX    TMP DP  RH WIND       PRES   REMARKS
WINCHESTER*    CLEAR     41  36  81 CALM      30.32S
FRONT ROYAL*   CLEAR     43  37  81 MISG      30.32S
LURAY*         CLEAR     41  39  93 CALM      30.33S
NEW MARKET*    CLEAR     38  37  96 CALM      30.33S
STAUNTON*      CLEAR     39  34  81 CALM      30.35S
WAYNESBORO*    CLEAR     42  38  84 SW3       30.33F

$$

WVZ021-048>050-054>055-180500-
EASTERN WEST VIRGINIA PANHANDLE

CITY           SKY/WX    TMP DP  RH WIND       PRES   REMARKS
MARTINSBURG    CLEAR     42  37  82 SW3       30.31S
PETERSBURG*    CLEAR     39  38  97 CALM      30.33S

$$

VAZ036>039-050-180500-
CENTRAL FOOTHILLS

CITY           SKY/WX    TMP DP  RH WIND       PRES   REMARKS
CHARLOTTESVILL CLEAR     46  42  86 CALM      30.34S
CULPEPER*      CLEAR     39  37  92 CALM      30.36S
ORANGE*        CLEAR     37  36  93 CALM      30.34S
GORDONSVILLE*  CLEAR     40  39  99 CALM      30.34S
WARRENTON*     CLEAR     37  33  87 CALM      30.34S

$$

VAZ055>057-180500-
NORTH AND CENTRAL PIEDMONT

CITY           SKY/WX    TMP DP  RH WIND       PRES   REMARKS
FREDERICKSBRG* CLEAR     42  41  98 CALM      30.35S
STAFFORD*      CLEAR     36  36 100 CALM      30.39S

$$

NCZ024-NYZ072-PAZ021-071-VAZ022-071-180500-
OTHER REGIONAL OBSERVATIONS

CITY           SKY/WX    TMP DP  RH WIND       PRES   REMARKS
NEW YORK CITY  CLEAR     53  38  56 W3        30.31F
PHILADELPHIA   CLEAR     52  41  66 SW9       30.32S
PITTSBURGH     CLEAR     50  40  68 CALM      30.30R
ROANOKE        CLEAR     46  41  82 CALM      30.36F
RICHMOND       CLEAR     46  41  82 SE3       30.35S
RALEIGH        CLEAR     44  42  93 CALM      30.34F

$$

ANZ530>537-180500-
MARINE OBSERVATIONS

STATION/POSITION TIME  TEMP    WIND        PRES
                       AIR SEA DIR/SP/G
                 (UTC) (F)     (DEG/KT/KT) (MB)
THOMAS PT LIGHT  0400   56 68  230/ 11/ 12   N/A
BALT KEY BRIDGE  0348   51     230/  9/ 11 1026.8F
COVE POINT       0348   55     240/  4/  5 1027.9F
LEWISETTA        0348   51 64  230/  3/  4 1027.4F
SOLOMONS ISLAND  0348   55 70  210/  3/  3 1027.0F
PINEY POINT      0348          250/  3/  4   N/A

$$




USA.gov is the U.S. government's official web portal to all federal, state and local government web resources and services.